QPF
0.01 0.00 0.00 0.00 0.00 0.00 0.00 0.00 0.00 0.00 0.00 0.00 0.00 0.00 0.00 0.00 0.00 0.00 0.00 0.00 0.00 0.00 0.00 0.00 0.00 0.00 0.00 0.00 0.00 0.00 0.00 0.00 0.00 0.00 0.00 0.00 0.00 0.00 0.00 0.00 0.00 0.00 0.00
0.02 0.02 0.00 0.00 0.00 0.00 0.01 0.04 0.03 0.01 0.03 0.04 0.01 0.00 0.00 0.00 0.00 0.00 0.00 0.00 0.00 0.00 0.00 0.00 0.00 0.00 0.00 0.00 0.00 0.00 0.00 0.00 0.00 0.00 0.00 0.00 0.00 0.00 0.00 0.00 0.00 0.00 0.00
0.08 0.05 0.04 0.03 0.02 0.04 0.11 0.12 0.14 0.08 0.05 0.05 0.02 0.00 0.00 0.00 0.00 0.00 0.00 0.00 0.00 0.00 0.00 0.00 0.00 0.00 0.00 0.00 0.00 0.00 0.00 0.00 0.00 0.00 0.00 0.00 0.00 0.00 0.00 0.00 0.00 0.00 0.00
0.04 0.04 0.02 0.01 0.02 0.02 0.06 0.08 0.12 0.16 0.16 0.14 0.08 0.03 0.01 0.00 0.00 0.00 0.00 0.00 0.00 0.00 0.00 0.00 0.00 0.00 0.00 0.00 0.00 0.00 0.01 0.01 0.01 0.00 0.00 0.01 0.01 0.00 0.00 0.00 0.00 0.00 0.00
0.06 0.03 0.01 0.02 0.02 0.02 0.05 0.02 0.03 0.09 0.12 0.13 0.19 0.30 0.36 0.24 0.05 0.01 0.00 0.00 0.00 0.00 0.00 0.00 0.00 0.00 0.00 0.00 0.00 0.00 0.00 0.01 0.00 0.00 0.00 0.00 0.00 0.00 0.00 0.00 0.00 0.00 0.00
0.10 0.10 0.04 0.04 0.06 0.06 0.04 0.02 0.02 0.04 0.07 0.10 0.12 0.14 0.13 0.14 0.05 0.01 0.00 0.00 0.00 0.00 0.00 0.00 0.00 0.00 0.00 0.00 0.00 0.00 0.00 0.00 0.00 0.00 0.00 0.00 0.00 0.00 0.00 0.00 0.01 0.01 0.00
0.04 0.04 0.06 0.06 0.03 0.05 0.04 0.03 0.00 0.01 0.03 0.07 0.07 0.05 0.05 0.05 0.03 0.01 0.00 0.00 0.00 0.00 0.00 0.00 0.00 0.00 0.00 0.00 0.00 0.00 0.00 0.00 0.00 0.00 0.00 0.00 0.00 0.00 0.00 0.00 0.00 0.01 0.01
0.10 0.05 0.01 0.02 0.03 0.04 0.04 0.02 0.00 0.01 0.02 0.07 0.11 0.13 0.08 0.02 0.00 0.00 0.00 0.00 0.00 0.00 0.00 0.00 0.00 0.00 0.00 0.00 0.00 0.00 0.00 0.00 0.00 0.00 0.00 0.00 0.01 0.01 0.00 0.00 0.00 0.01 0.01
0.13 0.27 0.19 0.11 0.04 0.03 0.03 0.03 0.03 0.02 0.02 0.03 0.05 0.08 0.04 0.02 0.00 0.00 0.00 0.00 0.00 0.00 0.00 0.00 0.00 0.00 0.00 0.00 0.00 0.00 0.00 0.00 0.00 0.00 0.00 0.01 0.01 0.01 0.01 0.01 0.00 0.00 0.00
0.19 0.38 0.50 0.33 0.22 0.19 0.10 0.08 0.08 0.06 0.10 0.04 0.07 0.11 0.10 0.04 0.01 0.01 0.00 0.00 0.00 0.00 0.00 0.00 0.00 0.00 0.00 0.00 0.00 0.00 0.00 0.00 0.00 0.00 0.00 0.02 0.03 0.04 0.05 0.04 0.01 0.00 0.00
0.13 0.23 0.32 0.53 0.36 0.27 0.28 0.17 0.08 0.04 0.03 0.04 0.07 0.14 0.17 0.20 0.16 0.08 0.03 0.01 0.00 0.00 0.00 0.00 0.00 0.00 0.00 0.00 0.00 0.00 0.00 0.00 0.00 0.00 0.00 0.00 0.05 0.09 0.08 0.08 0.06 0.04 0.01
0.22 0.36 0.80 0.75 0.62 0.29 0.16 0.15 0.09 0.04 0.02 0.02 0.03 0.05 0.10 0.10 0.10 0.11 0.05 0.01 0.00 0.00 0.00 0.00 0.00 0.00 0.00 0.00 0.00 0.00 0.00 0.00 0.00 0.00 0.00 0.00 0.03 0.05 0.09 0.06 0.03 0.04 0.09
0.42 0.70 0.53 0.87 0.79 0.42 0.11 0.03 0.02 0.01 0.00 0.00 0.01 0.02 0.03 0.05 0.06 0.04 0.02 0.01 0.00 0.00 0.00 0.00 0.00 0.00 0.00 0.00 0.00 0.00 0.00 0.00 0.00 0.00 0.00 0.01 0.02 0.06 0.03 0.02 0.02 0.04 0.08
0.26 0.35 0.38 0.31 0.30 0.19 0.05 0.00 0.00 0.00 0.00 0.00 0.00 0.01 0.00 0.01 0.02 0.06 0.08 0.07 0.05 0.02 0.01 0.00 0.00 0.00 0.00 0.00 0.00 0.00 0.01 0.01 0.01 0.01 0.02 0.03 0.05 0.04 0.03 0.02 0.04 0.10 0.08
0.07 0.06 0.03 0.03 0.02 0.01 0.00 0.00 0.00 0.00 0.00 0.00 0.00 0.00 0.00 0.01 0.01 0.02 0.05 0.06 0.15 0.16 0.07 0.02 0.01 0.00 0.00 0.00 0.00 0.00 0.01 0.02 0.02 0.02 0.02 0.04 0.05 0.06 0.05 0.06 0.06 0.06 0.09
0.00 0.00 0.00 0.00 0.00 0.00 0.00 0.00 0.00 0.00 0.00 0.00 0.00 0.00 0.00 0.00 0.00 0.01 0.01 0.02 0.02 0.03 0.02 0.01 0.01 0.00 0.00 0.00 0.00 0.01 0.00 0.02 0.04 0.04 0.03 0.01 0.01 0.06 0.08 0.07 0.06 0.05 0.04
0.00 0.00 0.00 0.00 0.00 0.00 0.00 0.00 0.00 0.00 0.00 0.00 0.00 0.00 0.00 0.00 0.00 0.01 0.01 0.02 0.03 0.05 0.05 0.02 0.00 0.01 0.03 0.03 0.04 0.05 0.04 0.04 0.02 0.02 0.02 0.01 0.02 0.06 0.09 0.10 0.08 0.05 0.03
0.00 0.00 0.00 0.00 0.00 0.00 0.00 0.00 0.00 0.00 0.00 0.00 0.00 0.00 0.00 0.00 0.00 0.00 0.00 0.00 0.00 0.01 0.02 0.01 0.00 0.00 0.02 0.05 0.07 0.08 0.09 0.13 0.15 0.09 0.08 0.05 0.05 0.04 0.04 0.04 0.03 0.02 0.01
0.00 0.00 0.00 0.00 0.00 0.00 0.00 0.00 0.00 0.00 0.00 0.00 0.00 0.00 0.00 0.00 0.01 0.01 0.02 0.02 0.01 0.01 0.01 0.01 0.00 0.00 0.03 0.05 0.11 0.18 0.22 0.23 0.28 0.36 0.30 0.27 0.22 0.13 0.06 0.03 0.02 0.01 0.00
0.00 0.00 0.00 0.00 0.00 0.00 0.00 0.00 0.00 0.00 0.00 0.00 0.00 0.00 0.00 0.00 0.00 0.00 0.00 0.01 0.01 0.01 0.01 0.00 0.00 0.00 0.02 0.05 0.12 0.18 0.18 0.16 0.16 0.21 0.23 0.21 0.18 0.13 0.10 0.06 0.02 0.02 0.02
0.00 0.00 0.00 0.00 0.00 0.00 0.00 0.00 0.00 0.00 0.00 0.00 0.00 0.00 0.00 0.00 0.00 0.00 0.00 0.00 0.00 0.00 0.00 0.00 0.00 0.00 0.00 0.00 0.02 0.06 0.09 0.08 0.07 0.06 0.05 0.05 0.07 0.04 0.01 0.01 0.01 0.01 0.02
0.00 0.00 0.00 0.00 0.00 0.00 0.00 0.00 0.00 0.00 0.00 0.00 0.00 0.00 0.00 0.00 0.00 0.00 0.00 0.00 0.00 0.00 0.00 0.00 0.00 0.00 0.00 0.00 0.00 0.00 0.00 0.00 0.01 0.02 0.02 0.01 0.01 0.00 0.00 0.00 0.01 0.01 0.02
0.00 0.00 0.00 0.00 0.00 0.00 0.00 0.00 0.00 0.00 0.00 0.00 0.00 0.00 0.00 0.00 0.00 0.00 0.00 0.00 0.00 0.00 0.00 0.00 0.00 0.00 0.00 0.00 0.00 0.00 0.00 0.00 0.00 0.00 0.00 0.00 0.00 0.00 0.00 0.01 0.02 0.02 0.04
0.00 0.00 0.00 0.00 0.00 0.00 0.00 0.00 0.00 0.00 0.00 0.00 0.00 0.00 0.00 0.00 0.00 0.00 0.00 0.00 0.00 0.00 0.00 0.00 0.00 0.00 0.00 0.00 0.00 0.00 0.00 0.00 0.00 0.00 0.00 0.00 0.00 0.00 0.00 0.00 0.04 0.03 0.06
0.00 0.00 0.00 0.00 0.00 0.00 0.00 0.00 0.00 0.00 0.00 0.00 0.00 0.00 0.00 0.00 0.00 0.00 0.00 0.00 0.00 0.00 0.00 0.00 0.00 0.00 0.00 0.00 0.00 0.00 0.00 0.00 0.00 0.00 0.00 0.00 0.00 0.00 0.00 0.00 0.01 0.04 0.03
0.00 0.00 0.00 0.00 0.00 0.00 0.00 0.00 0.00 0.00 0.00 0.00 0.00 0.00 0.00 0.00 0.00 0.00 0.00 0.00 0.00 0.00 0.00 0.00 0.00 0.00 0.00 0.00 0.00 0.00 0.00 0.00 0.00 0.00 0.00 0.00 0.00 0.00 0.00 0.00 0.00 0.02 0.03
MSLP
1013.58 1013.22 1013.13 1013.25 1013.37 1013.48 1013.79 1014.15 1014.38 1014.50 1014.72 1014.90 1015.07 1015.35 1015.53 1015.55 1015.37 1015.36 1015.52 1015.69 1015.57 1015.70 1015.92 1016.16 1016.46 1016.78 1017.00 1017.22 1017.41 1017.57 1017.77 1017.96 1018.11 1018.21 1018.28 1018.37 1018.46 1018.50 1018.53 1018.56 1018.63 1018.66 1018.72
1013.03 1013.33 1012.97 1012.93 1012.91 1012.99 1013.18 1013.50 1013.82 1014.24 1014.39 1014.44 1014.65 1014.50 1014.66 1014.77 1014.77 1014.68 1014.89 1015.11 1015.22 1015.36 1015.52 1015.70 1015.89 1016.09 1016.39 1016.64 1016.82 1016.99 1017.21 1017.41 1017.59 1017.73 1017.89 1017.99 1018.05 1018.13 1018.18 1018.23 1018.32 1018.37 1018.37
1012.84 1012.55 1012.69 1012.63 1012.54 1012.67 1012.81 1013.14 1013.41 1013.69 1013.98 1014.22 1014.22 1014.01 1013.92 1013.91 1014.09 1014.17 1014.44 1014.53 1014.71 1014.87 1015.01 1015.27 1015.40 1015.59 1015.68 1015.87 1016.08 1016.32 1016.54 1016.72 1016.96 1017.15 1017.31 1017.43 1017.51 1017.63 1017.77 1017.83 1017.93 1018.03 1018.09
1012.30 1012.50 1012.31 1012.18 1011.99 1012.29 1012.28 1012.88 1013.05 1013.41 1013.58 1013.69 1013.80 1013.66 1013.58 1013.67 1013.51 1013.54 1013.70 1013.95 1014.13 1014.41 1014.59 1014.88 1014.93 1015.11 1015.33 1015.46 1015.45 1015.53 1015.75 1016.04 1016.28 1016.48 1016.61 1016.80 1016.93 1017.02 1017.20 1017.35 1017.49 1017.63 1017.76
1011.93 1011.80 1012.06 1011.84 1011.89 1012.00 1011.99 1012.42 1012.57 1012.89 1013.19 1013.36 1013.47 1013.09 1013.33 1013.61 1013.54 1013.47 1013.34 1013.52 1013.76 1013.91 1014.06 1014.13 1014.25 1014.43 1014.70 1014.85 1014.99 1015.04 1015.01 1015.23 1015.46 1015.75 1015.85 1015.95 1016.22 1016.39 1016.55 1016.67 1016.84 1017.08 1017.24
1011.51 1011.78 1011.47 1011.71 1011.67 1011.86 1011.93 1012.12 1012.33 1012.50 1012.85 1012.97 1013.01 1013.05 1013.37 1013.59 1013.63 1013.27 1013.08 1013.00 1013.16 1013.33 1013.47 1013.55 1013.72 1013.83 1014.03 1014.12 1014.23 1014.39 1014.33 1014.44 1014.60 1014.80 1015.00 1015.17 1015.31 1015.67 1015.85 1016.03 1016.15 1016.41 1016.63
1011.25 1011.25 1011.31 1011.29 1011.36 1011.40 1011.53 1011.95 1011.85 1012.10 1012.52 1012.62 1013.02 1012.87 1012.92 1012.80 1012.80 1012.69 1012.56 1012.63 1012.68 1012.60 1012.71 1012.79 1012.95 1012.97 1013.12 1013.39 1013.55 1013.63 1013.77 1013.70 1013.90 1014.00 1014.19 1014.39 1014.50 1014.82 1015.18 1015.32 1015.36 1015.57 1015.87
1010.82 1010.79 1010.51 1010.71 1011.12 1011.10 1011.21 1011.25 1011.38 1011.78 1011.91 1012.03 1012.40 1012.74 1012.63 1012.87 1012.33 1012.05 1012.09 1011.84 1011.89 1011.87 1012.01 1012.14 1012.19 1012.27 1012.44 1012.51 1012.76 1012.89 1013.03 1013.10 1013.25 1013.42 1013.57 1013.71 1013.89 1013.89 1014.21 1014.42 1014.55 1014.85 1015.13
1010.41 1010.12 1010.04 1010.09 1010.42 1010.76 1010.84 1010.91 1010.81 1010.87 1011.35 1011.70 1011.91 1011.89 1012.47 1012.25 1011.83 1011.49 1011.30 1011.44 1011.28 1011.36 1011.41 1011.38 1011.61 1011.62 1011.66 1011.74 1011.86 1012.01 1012.10 1012.36 1012.44 1012.60 1012.79 1013.02 1013.29 1013.37 1013.46 1013.61 1013.99 1013.96 1014.36
1010.66 1010.75 1010.08 1009.93 1009.20 1009.95 1010.18 1010.34 1010.58 1010.85 1011.47 1011.43 1011.77 1011.62 1011.51 1011.69 1011.68 1011.70 1011.41 1011.13 1011.21 1010.99 1010.93 1010.88 1010.81 1010.82 1011.09 1011.21 1011.18 1011.16 1011.12 1011.28 1011.45 1011.82 1011.85 1012.05 1012.46 1012.50 1012.75 1012.80 1013.20 1013.22 1013.64
1011.26 1011.19 1011.09 1010.47 1008.76 1009.28 1009.95 1010.25 1010.23 1010.67 1011.01 1011.23 1011.31 1011.52 1011.69 1011.52 1011.59 1011.69 1011.33 1011.23 1010.87 1010.75 1010.66 1010.49 1010.39 1010.35 1010.16 1010.10 1010.22 1010.42 1010.38 1010.36 1010.35 1010.62 1010.90 1011.05 1011.22 1011.53 1011.81 1011.95 1012.16 1012.47 1012.96
1012.70 1012.26 1011.49 1011.77 1011.07 1009.65 1010.06 1010.66 1010.52 1010.73 1011.01 1011.06 1011.35 1011.44 1011.72 1011.79 1011.49 1011.33 1011.00 1010.67 1010.46 1010.09 1010.15 1010.00 1009.84 1009.68 1009.46 1009.38 1009.26 1009.20 1009.31 1009.37 1009.47 1009.56 1009.85 1010.15 1010.21 1010.55 1010.70 1010.89 1011.33 1011.72 1012.22
1013.46 1012.66 1012.74 1012.66 1011.03 1011.15 1010.12 1010.61 1010.82 1011.31 1011.72 1011.91 1011.88 1011.91 1011.91 1011.97 1011.67 1011.03 1010.87 1010.38 1010.04 1009.70 1009.45 1009.20 1008.98 1008.66 1008.46 1008.45 1008.35 1008.37 1008.41 1008.37 1008.70 1008.77 1008.76 1008.92 1009.27 1009.55 1009.82 1009.92 1010.10 1010.60 1011.21
1013.95 1013.26 1013.21 1013.58 1013.01 1012.86 1011.41 1011.59 1011.70 1011.98 1012.29 1012.67 1012.65 1012.56 1012.66 1012.59 1012.42 1012.18 1012.01 1011.57 1010.19 1009.66 1009.01 1008.43 1007.99 1007.95 1007.79 1007.75 1007.56 1007.57 1007.58 1007.50 1007.58 1007.77 1007.83 1007.99 1008.39 1008.69 1008.96 1008.93 1009.05 1009.58 1010.17
1014.02 1014.03 1015.29 1015.20 1014.58 1012.82 1013.24 1012.73 1012.87 1013.12 1012.86 1012.96 1012.94 1013.00 1012.91 1013.07 1012.90 1012.64 1012.72 1012.38 1011.85 1010.86 1009.59 1008.41 1008.22 1007.91 1007.94 1007.60 1007.20 1006.97 1007.02 1006.85 1006.81 1007.17 1007.34 1007.53 1007.94 1008.04 1008.00 1008.18 1008.33 1008.74 1009.25
1014.63 1014.81 1014.97 1014.68 1014.51 1014.57 1014.21 1013.81 1013.69 1013.36 1013.31 1013.22 1013.53 1013.44 1013.28 1013.46 1012.77 1013.21 1013.49 1013.00 1012.95 1012.09 1011.18 1010.12 1009.44 1009.52 1008.97 1008.32 1007.42 1006.98 1006.34 1006.19 1006.10 1006.48 1006.89 1007.11 1007.46 1007.53 1007.43 1007.63 1007.76 1008.08 1008.71
1015.96 1015.97 1015.57 1015.30 1015.15 1014.89 1014.44 1014.19 1014.19 1013.85 1013.56 1014.03 1013.97 1013.84 1013.70 1013.64 1013.38 1013.67 1013.41 1013.07 1013.10 1012.88 1011.70 1010.87 1010.83 1010.07 1009.47 1008.58 1008.17 1006.90 1006.09 1005.82 1005.59 1005.76 1005.89 1006.18 1006.47 1006.66 1006.94 1007.13 1007.63 1007.60 1008.07
1016.79 1016.58 1016.24 1015.79 1015.36 1015.05 1014.85 1014.66 1014.59 1014.41 1014.45 1014.43 1014.38 1014.22 1013.72 1013.92 1013.85 1013.97 1013.50 1013.32 1013.44 1013.50 1012.60 1011.55 1010.79 1010.24 1009.95 1009.42 1008.59 1007.70 1006.62 1005.79 1005.42 1004.96 1005.37 1005.68 1005.77 1006.13 1005.98 1006.78 1007.07 1007.31 1007.92
1017.26 1017.06 1016.86 1016.64 1016.21 1015.84 1015.66 1015.54 1015.26 1015.25 1015.07 1015.07 1014.83 1014.38 1014.20 1014.06 1013.91 1013.92 1013.69 1013.47 1013.41 1013.49 1013.02 1012.49 1011.22 1010.78 1010.30 1009.28 1008.84 1007.88 1007.05 1006.61 1006.00 1005.88 1005.09 1005.25 1005.18 1005.30 1005.52 1005.85 1006.42 1006.48 1007.08
1017.21 1017.17 1017.15 1016.97 1016.77 1016.15 1016.01 1015.62 1015.45 1015.39 1015.45 1015.35 1015.00 1014.75 1014.51 1014.24 1014.05 1013.90 1013.62 1013.57 1013.22 1013.13 1012.88 1012.55 1012.09 1011.55 1010.84 1010.06 1009.56 1008.59 1007.46 1006.87 1006.57 1006.11 1005.64 1005.49 1005.09 1005.36 1005.32 1005.36 1005.60 1005.89 1006.10
1017.27 1017.05 1016.84 1016.60 1016.36 1016.08 1015.81 1015.67 1015.74 1015.92 1015.82 1015.55 1015.22 1014.98 1014.62 1014.33 1014.13 1013.77 1013.72 1013.90 1013.61 1013.41 1013.25 1012.99 1012.60 1011.85 1011.22 1010.82 1010.40 1009.80 1008.93 1007.84 1007.12 1006.46 1005.90 1005.71 1005.34 1005.29 1005.05 1004.95 1005.05 1004.98 1005.02
1017.92 1017.77 1017.62 1017.45 1017.26 1016.91 1016.50 1016.11 1015.84 1015.78 1015.69 1015.47 1015.27 1015.03 1014.88 1014.60 1014.23 1014.04 1013.87 1013.81 1013.73 1013.44 1013.32 1013.12 1012.73 1012.31 1011.92 1011.59 1011.04 1010.61 1009.92 1009.20 1008.21 1007.02 1007.00 1006.14 1005.87 1005.31 1004.73 1004.42 1004.18 1004.07 1004.02
1017.99 1017.83 1017.58 1017.32 1017.09 1016.78 1016.27 1015.90 1015.63 1015.64 1015.65 1015.58 1015.40 1015.05 1014.64 1014.19 1013.98 1013.84 1013.75 1013.62 1013.57 1013.41 1013.21 1012.98 1012.73 1012.44 1012.01 1011.66 1011.35 1010.87 1010.42 1009.86 1009.10 1008.14 1007.89 1006.52 1005.91 1005.31 1004.65 1004.15 1003.80 1003.45 1003.31
1018.09 1017.79 1017.45 1017.14 1016.85 1016.44 1016.06 1015.72 1015.42 1015.38 1015.41 1015.30 1015.09 1014.78 1014.48 1014.13 1013.79 1013.46 1013.39 1013.39 1013.32 1013.15 1012.87 1012.50 1012.21 1011.85 1011.56 1011.23 1010.99 1010.71 1010.33 1009.66 1008.99 1008.42 1007.87 1006.48 1005.64 1005.02 1004.33 1003.85 1003.42 1003.14 1003.08
1018.08 1017.86 1017.53 1017.20 1016.92 1016.48 1016.04 1015.59 1015.27 1015.28 1015.26 1015.18 1014.89 1014.59 1014.27 1013.93 1013.53 1013.11 1012.94 1013.06 1012.97 1012.63 1012.26 1012.01 1011.69 1011.39 1011.17 1010.85 1010.48 1010.23 1009.85 1009.50 1008.63 1008.21 1007.57 1006.87 1005.93 1005.24 1004.52 1003.70 1003.28 1003.07 1003.16
1017.92 1017.58 1017.38 1017.12 1016.81 1016.55 1016.06 1015.62 1015.31 1015.12 1014.99 1014.72 1014.42 1014.20 1013.99 1013.63 1013.22 1012.81 1012.59 1012.64 1012.65 1012.36 1011.99 1011.65 1011.40 1011.01 1010.86 1010.58 1010.24 1010.12 1009.94 1009.48 1008.97 1008.03 1007.10 1007.16 1006.17 1005.76 1004.54 1003.51 1003.23 1002.88 1003.02
Thickness
5690 5691 5693 5693 5693 5693 5690 5689 5689 5690 5689 5687 5687 5687 5687 5687 5689 5690 5690 5688 5689 5688 5686 5684 5682 5681 5680 5679 5677 5676 5675 5674 5673 5672 5672 5671 5670 5669 5668 5668 5667 5666 5665
5682 5681 5684 5686 5687 5687 5686 5684 5684 5682 5683 5682 5682 5684 5683 5683 5684 5686 5687 5685 5683 5681 5680 5679 5678 5678 5676 5675 5675 5674 5673 5672 5671 5670 5668 5667 5666 5666 5665 5664 5663 5662 5661
5670 5675 5675 5676 5678 5679 5679 5678 5677 5675 5675 5675 5676 5678 5680 5682 5680 5679 5680 5681 5679 5677 5676 5674 5674 5674 5674 5673 5673 5671 5670 5670 5668 5667 5665 5664 5663 5662 5661 5661 5659 5658 5656
5659 5660 5664 5668 5670 5669 5672 5670 5670 5667 5668 5668 5669 5673 5674 5673 5674 5675 5675 5674 5674 5672 5671 5671 5670 5669 5669 5668 5669 5669 5668 5667 5665 5664 5663 5661 5660 5659 5658 5656 5655 5653 5652
5643 5648 5650 5655 5657 5660 5664 5661 5662 5660 5659 5661 5662 5668 5667 5663 5658 5661 5666 5667 5667 5669 5668 5668 5667 5667 5666 5665 5665 5664 5664 5663 5662 5661 5661 5660 5658 5656 5654 5654 5652 5650 5648
5628 5630 5636 5639 5643 5646 5650 5650 5650 5651 5652 5652 5656 5657 5656 5654 5650 5654 5659 5660 5662 5664 5664 5663 5663 5664 5663 5662 5661 5660 5661 5660 5660 5660 5658 5657 5656 5653 5651 5650 5649 5647 5644
5610 5615 5620 5626 5631 5635 5638 5637 5638 5640 5641 5644 5641 5645 5646 5651 5652 5653 5654 5655 5657 5658 5660 5661 5661 5661 5660 5658 5657 5656 5655 5655 5655 5656 5655 5654 5654 5651 5648 5647 5645 5644 5641
5591 5598 5609 5615 5617 5621 5625 5628 5630 5629 5632 5634 5634 5630 5633 5635 5644 5645 5646 5650 5651 5651 5656 5657 5657 5657 5656 5656 5653 5652 5651 5650 5649 5648 5649 5648 5648 5650 5648 5645 5643 5640 5638
5572 5582 5593 5601 5607 5610 5614 5617 5621 5625 5623 5622 5625 5626 5621 5624 5627 5634 5639 5639 5643 5645 5648 5649 5649 5651 5652 5651 5650 5649 5649 5647 5645 5643 5643 5642 5642 5643 5644 5642 5638 5638 5635
5552 5561 5576 5585 5602 5602 5607 5609 5608 5611 5609 5614 5612 5618 5621 5622 5617 5618 5625 5628 5630 5634 5637 5640 5643 5644 5644 5645 5645 5643 5645 5645 5642 5639 5639 5639 5638 5639 5639 5639 5635 5635 5632
5531 5543 5552 5571 5599 5596 5596 5595 5594 5593 5595 5601 5603 5603 5606 5611 5612 5610 5614 5616 5621 5625 5625 5628 5633 5636 5637 5639 5641 5640 5640 5641 5640 5638 5636 5636 5638 5636 5634 5635 5634 5630 5627
5508 5522 5536 5543 5554 5573 5579 5578 5580 5581 5581 5588 5592 5594 5593 5595 5599 5600 5602 5612 5613 5619 5617 5620 5625 5628 5630 5631 5634 5636 5636 5636 5634 5633 5632 5631 5633 5632 5633 5631 5629 5626 5623
5499 5510 5515 5527 5548 5555 5565 5563 5565 5564 5563 5565 5571 5573 5576 5579 5586 5592 5594 5601 5604 5609 5611 5616 5621 5623 5625 5627 5629 5629 5630 5631 5629 5629 5630 5630 5629 5629 5629 5628 5628 5624 5620
5502 5509 5515 5513 5522 5525 5540 5547 5549 5549 5548 5547 5549 5552 5553 5556 5560 5565 5567 5573 5590 5595 5605 5613 5615 5617 5617 5619 5622 5624 5625 5626 5626 5625 5627 5628 5626 5627 5625 5627 5626 5622 5618
5500 5502 5491 5496 5502 5524 5521 5530 5530 5529 5534 5533 5534 5535 5537 5537 5541 5545 5545 5549 5557 5570 5585 5599 5602 5604 5604 5608 5611 5614 5615 5619 5622 5618 5619 5621 5619 5620 5623 5621 5621 5619 5616
5496 5497 5496 5498 5502 5504 5509 5513 5515 5517 5518 5520 5516 5519 5521 5522 5529 5526 5524 5529 5531 5541 5554 5568 5575 5576 5579 5586 5596 5601 5606 5610 5614 5611 5610 5611 5610 5611 5614 5613 5612 5611 5609
5484 5485 5488 5491 5491 5494 5498 5499 5499 5503 5506 5502 5502 5503 5505 5507 5509 5508 5511 5515 5516 5520 5535 5547 5546 5553 5559 5567 5572 5586 5594 5598 5602 5602 5604 5604 5604 5604 5604 5604 5601 5603 5601
5475 5476 5478 5481 5484 5486 5485 5486 5485 5486 5484 5485 5486 5488 5492 5490 5492 5491 5496 5500 5500 5501 5511 5525 5532 5537 5539 5542 5551 5563 5575 5584 5589 5595 5594 5593 5593 5594 5597 5593 5593 5592 5589
5466 5466 5466 5466 5469 5471 5470 5469 5471 5470 5469 5468 5470 5473 5475 5477 5479 5479 5482 5485 5487 5486 5490 5499 5512 5517 5521 5529 5534 5544 5554 5562 5569 5573 5580 5581 5584 5584 5585 5585 5582 5586 5585
5460 5458 5456 5456 5456 5459 5458 5459 5459 5458 5457 5455 5458 5459 5460 5462 5464 5466 5470 5471 5474 5474 5476 5482 5488 5493 5500 5509 5514 5525 5537 5545 5551 5557 5562 5564 5570 5570 5572 5575 5577 5577 5579
5456 5455 5454 5453 5452 5452 5453 5451 5447 5443 5442 5442 5444 5444 5446 5448 5450 5453 5455 5453 5455 5456 5458 5463 5468 5477 5483 5488 5492 5499 5509 5522 5530 5537 5545 5549 5556 5558 5563 5566 5566 5570 5573
5444 5441 5439 5437 5435 5435 5435 5436 5436 5434 5433 5433 5433 5433 5433 5433 5435 5437 5438 5437 5440 5442 5442 5444 5451 5456 5461 5465 5472 5478 5486 5494 5507 5518 5521 5532 5537 5545 5553 5557 5562 5566 5569
5433 5431 5429 5427 5425 5424 5426 5426 5426 5423 5420 5419 5418 5419 5421 5423 5424 5424 5426 5426 5426 5428 5431 5433 5436 5439 5446 5450 5456 5461 5466 5473 5485 5496 5498 5516 5523 5534 5542 5549 5555 5560 5562
5419 5417 5416 5415 5413 5413 5414 5414 5413 5410 5407 5406 5405 5406 5407 5407 5408 5411 5411 5410 5410 5411 5415 5420 5424 5428 5432 5437 5441 5447 5453 5461 5472 5480 5486 5502 5514 5524 5533 5540 5547 5553 5555
5404 5401 5400 5398 5396 5395 5396 5397 5397 5394 5391 5389 5389 5389 5390 5390 5393 5395 5395 5392 5393 5396 5400 5403 5407 5411 5416 5420 5426 5432 5438 5446 5458 5466 5473 5483 5497 5505 5515 5527 5535 5540 5543
5390 5387 5383 5381 5380 5377 5378 5379 5379 5377 5376 5375 5373 5372 5371 5372 5375 5377 5377 5377 5376 5377 5381 5384 5387 5391 5395 5400 5405 5409 5416 5424 5433 5447 5456 5461 5475 5483 5502 5513 5519 5527 5531